Regional Weather Roundup
Issued by NWS

Home | Current Version | Previous Version | Text Only | Print | Product List | Glossary On
Versions: 1 2 3 4 5 6 7 8 9 10 11 12 13 14 15 16 17 18 19 20 21 22 23 24 25 26 27 28 29 30 31 32 33 34 35 36 37 38 39 40 41 42 43 44 45 46 47 48 49 50
000
ASUS43 KBIS 281710
RWRND

NORTH DAKOTA REGIONAL WEATHER ROUNDUP
NATIONAL WEATHER SERVICE BISMARCK ND
1100 AM CST TUE FEB 28 2017

NOTE: "FAIR" INDICATES FEW OR NO CLOUDS BELOW 12,000 FEET WITH NO
SIGNIFICANT WEATHER AND/OR OBSTRUCTIONS TO VISIBILITY.


NDZ001>003-009>011-017-281800-
NORTHWEST NORTH DAKOTA

CITY           SKY/WX    TMP DP  RH WIND       PRES   REMARKS
WILLISTON      CLOUDY    17  13  84 SE9       29.82R WCI   6
MINOT          FLURRIES  11   5  77 E13       29.89S WCI  -4
MINOT AFB      LGT SNOW   9   6  87 SE13      29.90R FOG     WCI  -7
$$

NDZ018>021-031>035-040>046-281800-
SOUTHWEST NORTH DAKOTA

CITY           SKY/WX    TMP DP  RH WIND       PRES   REMARKS
BISMARCK       CLOUDY    18  13  80 E8        29.88F WCI   8
DICKINSON      CLOUDY    18  16  92 SE8       29.77S WCI   8
GARRISON         N/A     13   9  84 E8        29.87R WCI   2
HETTINGER ARPT CLOUDY    21  18  88 E8        29.78R WCI  11
$$

NDZ004>008-012>016-024-026-027-054-281800-
NORTHEAST NORTH DAKOTA

CITY           SKY/WX    TMP DP  RH WIND       PRES   REMARKS
GRAND FORKS    MOSUNNY   17   5  59 NE8       29.95R WCI   7
GRND FRKS AFB  SUNNY     15   6  68 N9        29.95S WCI   3
DEVILS LAKE    FAIR       9   2  73 NE9       29.92F WCI  -4
$$

NDZ022-023-025-028>030-036>039-047>053-281800-
SOUTHEAST NORTH DAKOTA

CITY           SKY/WX    TMP DP  RH WIND       PRES   REMARKS
FARGO          CLOUDY    25  20  81 N18       29.88F WCI  11
JAMESTOWN      FAIR      20  14  77 NE12      29.87S WCI   8
$$




USA.gov is the U.S. government's official web portal to all federal, state and local government web resources and services.